Terminal Aerodrome Forecast
Issued by NWS Raleigh/Durham, NC

Home | Current Version | Previous Version | Text Only | Print | Product List | Glossary On
Versions: 1 2 3 4 5 6 7 8 9 10 11 12 13 14 15 16 17 18 19 20 21 22 23 24 25 26 27 28 29 30 31 32 33 34 35 36 37 38 39 40 41 42 43 44 45 46 47 48 49 50
000
FTUS42 KRAH 301129
TAFGSO
TAF
KGSO 301129Z 3012/0112 21006KT P6SM SCT008 BKN015
      TEMPO 3012/3015 BKN009
     FM301700 21008KT P6SM SCT030
     FM301900 20009G16KT P6SM SCT040
     FM010400 17008KT P6SM SCT020
     FM010500 18010KT P6SM SCT010
     FM011000 19013G22KT P6SM BKN008=

USA.gov is the U.S. government's official web portal to all federal, state and local government web resources and services.